DW8343 Weather Reports


time (UTC)temp
F
wind
direction
speed
knots
gust
knots
rain 1hr
in
rain 24hr
in
rain mn
in
humidity
%
barometer
mb
20260503013250 65 71 0.0 0.0 0.00 0.00 0.00 48 1020.0
20260503012747 66 71 0.0 0.0 0.00 0.00 0.00 48 1020.0
20260503012244 66 71 0.0 0.0 0.00 0.00 0.00 46 1020.0
20260503011741 67 71 0.0 0.0 0.00 0.00 0.00 46 1019.9
20260503011238 67 71 0.0 0.0 0.00 0.00 0.00 45 1019.8
20260503010734 68 71 0.0 0.0 0.00 0.00 0.00 43 1019.9
20260503010231 68 71 0.0 0.9 0.00 0.00 0.00 43 1019.8
20260503005729 68 71 0.0 0.0 0.00 0.00 0.00 42 1019.9
20260503005226 68 71 0.0 0.0 0.00 0.00 0.00 43 1020.0
20260503004722 69 71 0.0 0.0 0.00 0.00 0.00 42 1019.7
20260503004220 69 71 0.0 0.0 0.00 0.00 0.00 41 1019.9
20260503003717 69 71 0.0 0.0 0.00 0.00 0.00 40 1019.8
20260503003214 69 71 0.0 0.9 0.00 0.00 0.00 40 1019.8
20260503002711 70 71 0.0 0.0 0.00 0.00 0.00 41 1019.8
20260503002208 70 71 0.9 0.9 0.00 0.00 0.00 39 1020.0
20260503001704 71 71 0.0 0.9 0.00 0.00 0.00 41 1019.8
20260503001200 71 71 0.9 2.6 0.00 0.00 0.00 39 1019.9
20260503000658 73 337 0.0 0.0 0.00 0.00 0.00 37 1020.0
20260503000155 73 337 0.0 0.0 0.00 0.00 0.00 36 1019.8
20260502235652 72 337 0.0 0.9 0.00 0.00 0.00 38 1019.8
20260502235150 73 337 0.0 0.9 0.00 0.00 0.00 38 1019.8
20260502234646 73 257 0.0 1.7 0.00 0.00 0.00 39 1019.9
20260502234143 73 257 0.0 0.0 0.00 0.00 0.00 37 1019.9
20260502233638 73 257 0.0 0.0 0.00 0.00 0.00 38 1020.2
20260502233130 73 256 0.9 0.9 0.00 0.00 0.00 36 1020.0
20260502232626 74 8 0.0 0.9 0.00 0.00 0.00 38 1020.1
20260502232124 74 24 0.0 0.9 0.00 0.00 0.00 37 1019.9
20260502231620 73 23 0.0 1.7 0.00 0.00 0.00 37 1019.8
20260502231118 73 8 0.0 1.7 0.00 0.00 0.00 39 1020.2
20260502230616 73 318 0.0 0.0 0.00 0.00 0.00 37 1020.1
20260502230114 73 321 0.0 0.9 0.00 0.00 0.00 38 1020.2
20260502225609 74 10 0.9 0.9 0.00 0.00 0.00 37 1020.0
20260502225107 74 158 0.9 1.7 0.00 0.00 0.00 36 1020.0
20260502224603 74 87 0.9 3.5 0.00 0.00 0.00 37 1020.1
20260502224100 74 92 0.0 1.7 0.00 0.00 0.00 36 1020.0
20260502223558 75 239 1.7 2.6 0.00 0.00 0.00 35 1020.1
20260502223056 75 10 0.0 0.9 0.00 0.00 0.00 37 1020.1
20260502222553 76 128 0.9 2.6 0.00 0.00 0.00 35 1020.2
20260502222049 75 343 0.0 0.9 0.00 0.00 0.00 36 1020.2
20260502221545 75 352 0.0 2.6 0.00 0.00 0.00 38 1020.2
20260502221042 75 26 0.9 2.6 0.00 0.00 0.00 38 1020.3
20260502220538 76 3 0.9 2.6 0.00 0.00 0.00 37 1020.2
20260502220035 75 92 0.0 1.7 0.00 0.00 0.00 40 1020.5
20260502215532 75 92 0.9 1.7 0.00 0.00 0.00 36 1020.4
20260502215029 77 92 0.0 0.9 0.00 0.00 0.00 34 1020.6
20260502214526 76 92 0.0 1.7 0.00 0.00 0.00 36 1020.4
20260502214024 74 92 0.9 1.7 0.00 0.00 0.00 39 1020.6
20260502213520 75 235 0.9 1.7 0.00 0.00 0.00 37 1020.7
20260502213018 76 222 1.7 1.7 0.00 0.00 0.00 35 1020.6
20260502212516 76 10 0.0 0.9 0.00 0.00 0.00 38 1020.8
20260502212013 77 252 0.9 0.9 0.00 0.00 0.00 39 1020.7
20260502211509 75 294 0.9 1.7 0.00 0.00 0.00 36 1020.8
20260502211006 76 32 0.0 0.9 0.00 0.00 0.00 37 1020.9
20260502210503 75 114 1.7 1.7 0.00 0.00 0.00 37 1020.9
20260502210000 76 4 0.0 0.9 0.00 0.00 0.00 36 1020.9
20260502205456 76 274 1.7 1.7 0.00 0.00 0.00 39 1021.0
20260502204954 76 309 0.9 1.7 0.00 0.00 0.00 39 1021.1
20260502204450 76 11 0.0 0.9 0.00 0.00 0.00 42 1021.0
20260502203948 74 103 3.5 5.2 0.00 0.00 0.00 38 1021.1
20260502203445 73 97 2.6 3.5 0.00 0.00 0.00 37 1021.3
20260502202942 74 41 1.7 2.6 0.00 0.00 0.00 40 1021.4
20260502202438 74 6 0.9 2.6 0.00 0.00 0.00 39 1021.5
20260502201937 75 350 0.0 0.9 0.00 0.00 0.00 39 1021.4
20260502201432 74 309 0.0 1.7 0.00 0.00 0.00 42 1021.5
20260502200929 74 3 0.0 0.9 0.00 0.00 0.00 41 1021.6
20260502200424 73 3 0.0 1.7 0.00 0.00 0.00 41 1021.6
20260502195923 75 9 0.9 0.9 0.00 0.00 0.00 39 1021.6
20260502195420 75 190 0.9 1.7 0.00 0.00 0.00 38 1021.4
20260502194916 74 210 0.9 1.7 0.00 0.00 0.00 42 1021.6
20260502194413 73 343 0.9 2.6 0.00 0.00 0.00 41 1021.6
20260502193909 74 238 0.9 1.7 0.00 0.00 0.00 39 1021.7
20260502193406 74 5 0.0 2.6 0.00 0.00 0.00 42 1021.8
20260502192901 74 88 0.9 1.7 0.00 0.00 0.00 41 1021.8
20260502192359 72 4 0.0 0.9 0.00 0.00 0.00 45 1021.8
20260502191855 72 162 0.9 1.7 0.00 0.00 0.00 41 1021.7
20260502191354 74 351 0.9 1.7 0.00 0.00 0.00 42 1021.8
20260502190851 73 23 1.7 2.6 0.00 0.00 0.00 43 1022.0
20260502190348 74 54 0.0 0.9 0.00 0.00 0.00 41 1022.0
20260502185844 73 303 0.0 1.7 0.00 0.00 0.00 40 1022.2
20260502185339 73 195 0.9 0.9 0.00 0.00 0.00 41 1022.2
20260502184837 73 196 1.7 1.7 0.00 0.00 0.00 40 1022.2
20260502184332 73 33 0.9 1.7 0.00 0.00 0.00 43 1022.1
20260502183829 73 113 0.9 1.7 0.00 0.00 0.00 41 1022.1
20260502183325 72 271 0.9 1.7 0.00 0.00 0.00 44 1022.4
20260502182820 72 340 0.0 0.9 0.00 0.00 0.00 41 1022.5
20260502182316 71 8 0.9 1.7 0.00 0.00 0.00 42 1022.6
20260502181813 72 101 1.7 2.6 0.00 0.00 0.00 41 1022.7
20260502181312 71 227 0.0 2.6 0.00 0.00 0.00 46 1022.7
20260502180809 71 175 1.7 2.6 0.00 0.00 0.00 43 1022.7
20260502180307 71 218 0.0 1.7 0.00 0.00 0.00 45 1022.9
20260502170220 69 344 0.0 2.6 0.00 0.00 0.00 51 1022.9
20260502164207 69 220 0.0 1.7 0.00 0.00 0.00 50 1023.0
20260502163702 69 264 0.0 1.7 0.00 0.00 0.00 48 1023.1
20260502163159 68 203 0.0 0.9 0.00 0.00 0.00 50 1022.9
20260502162655 67 62 0.9 0.9 0.00 0.00 0.00 51 1023.2
20260502162152 66 55 0.0 0.9 0.00 0.00 0.00 55 1022.9
20260502161650 66 55 0.0 0.9 0.00 0.00 0.00 52 1023.0
20260502161146 65 55 0.0 0.9 0.00 0.00 0.00 51 1023.0
20260502160644 65 243 0.0 0.9 0.00 0.00 0.00 51 1023.0
20260502160143 64 356 0.0 0.0 0.00 0.00 0.00 52 1022.9
20260502152057 62 313 0.0 0.0 0.00 0.00 0.00 54 1023.0
20260502151554 62 304 0.0 0.9 0.00 0.00 0.00 56 1023.0
20260502151052 62 262 0.0 0.9 0.00 0.00 0.00 56 1023.0
20260502150549 62 248 0.9 1.7 0.00 0.00 0.00 54 1023.0
20260502130427 54 308 0.9 0.9 0.00 0.00 0.00 67 1022.4
20260502123410 51 330 0.0 0.9 0.00 0.00 0.00 73 1022.1
20260502122908 51 222 0.0 0.9 0.00 0.00 0.00 75 1022.1
20260502122403 50 320 0.0 0.0 0.00 0.00 0.00 76 1021.9
20260502121902 50 278 0.0 0.0 0.00 0.00 0.00 75 1021.8
20260502121358 50 283 0.9 1.7 0.00 0.00 0.00 75 1021.7
20260502120856 50 110 0.0 0.0 0.00 0.00 0.00 75 1021.6
20260502120352 50 46 0.0 0.0 0.00 0.00 0.00 74 1021.8
20260502115849 50 277 0.0 0.0 0.00 0.00 0.00 74 1021.5
20260502115347 50 60 0.0 1.7 0.00 0.00 0.00 74 1021.4
20260502114843 50 334 0.0 0.0 0.00 0.00 0.00 73 1021.3
20260502114340 49 330 0.0 0.0 0.00 0.00 0.00 74 1021.5
20260502113837 50 319 0.0 0.0 0.00 0.00 0.00 74 1021.7
20260502113334 50 269 0.0 0.0 0.00 0.00 0.00 73 1021.5
20260502112833 51 345 0.0 0.0 0.00 0.00 0.00 71 1021.7
20260502112329 51 346 0.0 0.0 0.00 0.00 0.00 71 1021.7
20260502111827 51 1 0.0 0.9 0.00 0.00 0.00 70 1021.6
20260502111324 51 138 0.0 0.0 0.00 0.00 0.00 70 1021.6
20260502110822 51 138 0.0 0.0 0.00 0.00 0.00 71 1021.7
20260502110320 51 138 0.0 0.0 0.00 0.00 0.00 70 1021.4
20260502105817 52 138 0.0 0.0 0.00 0.00 0.00 68 1021.7
20260502105314 53 138 0.0 0.0 0.00 0.00 0.00 68 1021.4
20260502104812 53 138 0.0 0.9 0.00 0.00 0.00 67 1021.5
20260502104308 53 235 0.0 0.9 0.00 0.00 0.00 67 1021.6
20260502103806 53 19 0.0 0.0 0.00 0.00 0.00 67 1021.8
20260502103303 54 4 0.0 0.0 0.00 0.00 0.00 66 1022.0
20260502102800 54 4 0.0 0.0 0.00 0.00 0.00 65 1021.8
20260502102256 54 4 0.0 0.0 0.00 0.00 0.00 65 1022.2
20260502101755 54 4 0.0 0.0 0.00 0.00 0.00 66 1022.2
20260502101252 53 341 0.0 0.0 0.00 0.00 0.00 67 1022.4
20260502100750 53 331 0.0 0.9 0.00 0.00 0.00 68 1022.5
20260502100249 53 307 0.0 0.0 0.00 0.00 0.00 68 1022.2
20260502091223 49 262 0.0 0.0 0.00 0.00 0.00 77 1020.7
20260502090720 49 261 0.0 0.0 0.00 0.00 0.00 75 1020.7
20260502090217 49 262 0.0 0.0 0.00 0.00 0.00 73 1020.7
20260502071113 51 262 0.0 0.0 0.00 0.00 0.00 70 1020.5
20260502070611 51 262 0.0 0.0 0.00 0.00 0.00 69 1020.7
20260502070109 51 262 0.0 0.0 0.00 0.00 0.00 69 1020.6
20260502065607 52 262 0.0 0.0 0.00 0.00 0.00 69 1020.6
20260502065104 52 262 0.0 0.0 0.00 0.00 0.00 68 1020.6
20260502064603 52 262 0.0 0.0 0.00 0.00 0.00 67 1020.6
20260502064100 52 262 0.0 0.9 0.00 0.00 0.00 66 1020.5
20260502063557 52 339 0.0 0.9 0.00 0.00 0.00 66 1020.7
20260502063055 52 337 0.9 1.7 0.00 0.00 0.00 67 1020.7
20260502062552 51 16 0.0 0.0 0.00 0.00 0.00 69 1020.7
20260502062050 52 16 0.0 0.0 0.00 0.00 0.00 69 1020.7
20260502061548 52 16 0.0 0.0 0.00 0.00 0.00 68 1020.8
20260502061045 52 16 0.0 0.0 0.00 0.00 0.00 69 1020.9
20260502060545 52 16 0.0 0.0 0.00 0.00 0.00 68 1020.9
20260502060042 52 16 0.0 0.0 0.00 0.00 0.00 67 1020.9
20260502055539 53 16 0.0 0.0 0.00 0.00 0.00 66 1020.9
20260502055038 53 16 0.0 0.0 0.00 0.00 0.00 67 1020.7
20260502054536 53 16 0.0 0.0 0.00 0.00 0.00 66 1020.8
20260502054033 53 16 0.0 0.0 0.00 0.00 0.00 66 1020.8
20260502053530 53 16 0.0 0.0 0.00 0.00 0.00 66 1020.8
20260502053028 52 16 0.0 0.0 0.00 0.00 0.00 69 1020.8
20260502052526 52 16 0.0 0.0 0.00 0.00 0.00 69 1020.7
20260502052024 53 16 0.0 0.0 0.00 0.00 0.00 70 1020.7
20260502051521 53 16 0.0 0.0 0.00 0.00 0.00 70 1020.7
20260502051019 53 16 0.0 0.0 0.00 0.00 0.00 69 1020.6
20260502050515 52 16 0.0 0.0 0.00 0.00 0.00 70 1020.8
20260502050012 52 16 0.0 0.0 0.00 0.00 0.00 70 1020.6
20260502045509 52 16 0.0 0.0 0.00 0.00 0.00 70 1020.8
20260502045006 52 16 0.0 0.0 0.00 0.00 0.00 71 1020.7
20260502044502 52 16 0.0 0.0 0.00 0.00 0.00 71 1020.9
20260502043959 53 16 0.0 0.0 0.00 0.00 0.00 70 1020.7
20260502043456 53 16 0.0 0.0 0.00 0.00 0.00 69 1020.8
20260502042955 52 16 0.0 0.0 0.00 0.00 0.00 70 1020.8
20260502042453 53 16 0.0 0.0 0.00 0.00 0.00 68 1020.8
20260502041950 53 16 0.0 0.0 0.00 0.00 0.00 68 1020.8
20260502041448 53 16 0.0 0.0 0.00 0.00 0.00 67 1020.7
20260502040944 54 16 0.0 0.0 0.00 0.00 0.00 67 1020.6
20260502040441 54 16 0.0 0.0 0.00 0.00 0.00 67 1020.8
20260502035937 54 16 0.0 0.0 0.00 0.00 0.00 67 1020.8
20260502035434 54 16 0.0 0.0 0.00 0.00 0.00 65 1020.8
20260502034932 55 16 0.0 0.0 0.00 0.00 0.00 64 1020.7
20260502034430 55 16 0.0 0.0 0.00 0.00 0.00 64 1020.7
20260502033928 55 16 0.0 0.0 0.00 0.00 0.00 63 1020.5
20260502033425 55 16 0.0 0.0 0.00 0.00 0.00 63 1020.4
20260502032922 55 16 0.0 0.0 0.00 0.00 0.00 63 1020.7
20260502032418 55 16 0.0 0.0 0.00 0.00 0.00 62 1020.5
20260502031916 56 16 0.0 0.0 0.00 0.00 0.00 62 1020.5
20260502031414 56 16 0.0 0.0 0.00 0.00 0.00 62 1020.7
20260502030912 56 16 0.0 0.0 0.00 0.00 0.00 62 1020.4
20260502030410 56 16 0.0 0.0 0.00 0.00 0.00 62 1020.4
20260502025908 56 16 0.0 0.0 0.00 0.00 0.00 63 1020.6
20260502025404 56 16 0.0 0.0 0.00 0.00 0.00 62 1020.2
20260502024902 56 16 0.0 0.0 0.00 0.00 0.00 61 1020.4
20260502024400 56 16 0.0 0.0 0.00 0.00 0.00 61 1020.2
20260502023858 57 16 0.0 0.0 0.00 0.00 0.00 60 1020.4
20260502023355 57 16 0.0 0.0 0.00 0.00 0.00 60 1020.1
20260502022853 57 16 0.0 0.0 0.00 0.00 0.00 60 1020.2
20260502022349 56 16 0.0 0.0 0.00 0.00 0.00 59 1020.0
20260502021846 56 16 0.0 0.0 0.00 0.00 0.00 60 1020.3
20260502021343 57 16 0.0 0.0 0.00 0.00 0.00 59 1020.0
20260502020840 57 16 0.0 0.0 0.00 0.00 0.00 58 1019.8
20260502020338 57 16 0.0 0.0 0.00 0.00 0.00 58 1019.8
20260502015835 57 16 0.0 0.0 0.00 0.00 0.00 58 1019.6
20260502015332 57 16 0.0 0.0 0.00 0.00 0.00 56 1019.7
20260502014829 58 16 0.0 0.0 0.00 0.00 0.00 55 1019.7
20260502014326 58 16 0.0 0.0 0.00 0.00 0.00 54 1019.5
20260502013822 59 16 0.0 0.0 0.00 0.00 0.00 54 1019.5